| time (UTC) | temp C | wind direction | speed KPH | gust KPH | rain 1hr cm | rain 24hr cm | rain mn cm | humidity % | barometer mb |
| 20260510094306 | 15 | 90 | 1.6 | 1.6 | 0.00 | 0.00 | 0.00 | 76 | 1036.6 |
| 20260510093303 | 15 | 90 | 1.6 | 1.6 | 0.00 | 0.00 | 0.00 | 76 | 1036.5 |
| 20260510092306 | 15 | 90 | 1.6 | 1.6 | 0.00 | 0.00 | 0.00 | 75 | 1036.5 |
| 20260510091301 | 15 | 90 | 1.6 | 3.2 | 0.00 | 0.00 | 0.00 | 75 | 1036.3 |
| 20260510085256 | 15 | 90 | 1.6 | 3.2 | 0.00 | 0.00 | 0.00 | 75 | 1036.2 |
| 20260510083251 | 15 | 90 | 1.6 | 3.2 | 0.00 | 0.00 | 0.00 | 75 | 1036.1 |
| 20260510082251 | 15 | 90 | 1.6 | 3.2 | 0.00 | 0.00 | 0.00 | 74 | 1036.1 |
| 20260510080246 | 15 | 90 | 1.6 | 3.2 | 0.00 | 0.00 | 0.00 | 74 | 1035.8 |
| 20260510075244 | 15 | 90 | 1.6 | 3.2 | 0.00 | 0.00 | 0.00 | 74 | 1035.7 |
| 20260510073239 | 16 | 90 | 1.6 | 1.6 | 0.00 | 0.00 | 0.00 | 73 | 1035.6 |
| 20260510072240 | 16 | 90 | 1.6 | 1.6 | 0.00 | 0.00 | 0.00 | 73 | 1035.5 |
| 20260510071237 | 16 | 90 | 1.6 | 1.6 | 0.00 | 0.00 | 0.00 | 73 | 1035.4 |
| 20260510070234 | 16 | 90 | 1.6 | 1.6 | 0.00 | 0.00 | 0.00 | 73 | 1035.3 |
| 20260510064229 | 16 | 90 | 1.6 | 1.6 | 0.00 | 0.00 | 0.00 | 72 | 1035.3 |
| 20260510063228 | 16 | 90 | 1.6 | 3.2 | 0.00 | 0.00 | 0.00 | 72 | 1035.3 |
| 20260510062226 | 16 | 90 | 1.6 | 3.2 | 0.00 | 0.00 | 0.00 | 72 | 1035.3 |
| 20260510061225 | 17 | 90 | 1.6 | 1.6 | 0.00 | 0.00 | 0.00 | 72 | 1035.3 |
| 20260510060222 | 17 | 90 | 1.6 | 3.2 | 0.00 | 0.00 | 0.00 | 72 | 1035.4 |
| 20260510055219 | 17 | 90 | 1.6 | 3.2 | 0.00 | 0.00 | 0.00 | 72 | 1035.2 |
| 20260510054220 | 17 | 90 | 1.6 | 3.2 | 0.00 | 0.00 | 0.00 | 72 | 1035.2 |
| 20260510053216 | 17 | 90 | 1.6 | 3.2 | 0.00 | 0.00 | 0.00 | 72 | 1035.1 |
| 20260510052214 | 17 | 90 | 1.6 | 3.2 | 0.00 | 0.00 | 0.00 | 71 | 1035.2 |
| 20260510051213 | 17 | 90 | 1.6 | 3.2 | 0.00 | 0.00 | 0.00 | 71 | 1034.9 |
| 20260510050212 | 17 | 90 | 1.6 | 3.2 | 0.00 | 0.00 | 0.00 | 71 | 1034.9 |
| 20260510044205 | 17 | 90 | 1.6 | 1.6 | 0.00 | 0.00 | 0.00 | 71 | 1035.0 |
| 20260510043205 | 17 | 90 | 1.6 | 3.2 | 0.00 | 0.00 | 0.00 | 71 | 1035.0 |
| 20260510042202 | 17 | 90 | 1.6 | 3.2 | 0.00 | 0.00 | 0.00 | 71 | 1035.0 |
| 20260510041159 | 17 | 90 | 1.6 | 3.2 | 0.00 | 0.00 | 0.00 | 70 | 1035.2 |
| 20260510040159 | 17 | 90 | 1.6 | 3.2 | 0.00 | 0.00 | 0.00 | 70 | 1035.3 |
| 20260510035156 | 17 | 59 | 1.6 | 3.2 | 0.00 | 0.00 | 0.00 | 70 | 1035.2 |
| 20260510034155 | 18 | 67 | 1.6 | 3.2 | 0.00 | 0.00 | 0.00 | 71 | 1035.1 |
| 20260510033152 | 18 | 67 | 1.6 | 3.2 | 0.00 | 0.00 | 0.00 | 71 | 1035.3 |
| 20260510031149 | 18 | 90 | 1.6 | 3.2 | 0.00 | 0.00 | 0.00 | 73 | 1035.3 |
| 20260510030147 | 18 | 90 | 1.6 | 3.2 | 0.00 | 0.00 | 0.00 | 73 | 1035.4 |
| 20260510025145 | 18 | 59 | 1.6 | 3.2 | 0.00 | 0.00 | 0.00 | 74 | 1035.6 |
| 20260510024142 | 18 | 90 | 1.6 | 3.2 | 0.00 | 0.00 | 0.00 | 75 | 1035.8 |
| 20260510023141 | 18 | 90 | 1.6 | 3.2 | 0.00 | 0.00 | 0.00 | 75 | 1035.9 |
| 20260510022138 | 18 | 90 | 1.6 | 3.2 | 0.00 | 0.00 | 0.00 | 76 | 1036.0 |
| 20260510020134 | 17 | 90 | 1.6 | 3.2 | 0.00 | 0.00 | 0.00 | 78 | 1036.3 |
| 20260510015132 | 16 | 60 | 1.6 | 3.2 | 0.00 | 0.00 | 0.00 | 79 | 1036.6 |
| 20260510014131 | 16 | 51 | 1.6 | 3.2 | 0.00 | 0.00 | 0.00 | 79 | 1036.6 |
| 20260510013127 | 16 | 90 | 1.6 | 1.6 | 0.00 | 0.00 | 0.00 | 79 | 1036.7 |
| 20260510012128 | 16 | 90 | 1.6 | 3.2 | 0.00 | 0.00 | 0.00 | 80 | 1036.8 |
| 20260510010122 | 15 | 90 | 1.6 | 3.2 | 0.00 | 0.00 | 0.00 | 81 | 1036.7 |
| 20260510005120 | 15 | 90 | 1.6 | 3.2 | 0.00 | 0.00 | 0.00 | 81 | 1036.9 |
| 20260510004118 | 15 | 90 | 1.6 | 3.2 | 0.00 | 0.00 | 0.00 | 81 | 1036.9 |
| 20260510002114 | 15 | 90 | 1.6 | 3.2 | 0.00 | 0.00 | 0.00 | 82 | 1036.7 |
| 20260510001111 | 15 | 90 | 1.6 | 3.2 | 0.00 | 0.00 | 0.00 | 82 | 1036.6 |
| 20260510000110 | 15 | 90 | 1.6 | 3.2 | 0.00 | 0.00 | 0.00 | 82 | 1036.7 |
| 20260509235108 | 15 | 90 | 1.6 | 3.2 | 0.00 | 0.00 | 0.00 | 83 | 1036.5 |
| 20260509234107 | 14 | 90 | 1.6 | 3.2 | 0.00 | 0.00 | 0.00 | 83 | 1036.5 |
| 20260509232102 | 14 | 90 | 1.6 | 3.2 | 0.00 | 0.00 | 0.00 | 83 | 1036.6 |
| 20260509231100 | 14 | 90 | 1.6 | 3.2 | 0.00 | 0.00 | 0.00 | 83 | 1036.5 |
| 20260509230059 | 13 | 90 | 1.6 | 3.2 | 0.00 | 0.00 | 0.00 | 83 | 1036.3 |
| 20260509225056 | 13 | 90 | 1.6 | 3.2 | 0.00 | 0.00 | 0.00 | 83 | 1036.1 |
| 20260509224055 | 13 | 90 | 1.6 | 1.6 | 0.00 | 0.00 | 0.00 | 83 | 1036.1 |
| 20260509222052 | 13 | 90 | 1.6 | 1.6 | 0.00 | 0.00 | 0.00 | 83 | 1036.0 |
| 20260509221049 | 13 | 90 | 1.6 | 1.6 | 0.00 | 0.00 | 0.00 | 83 | 1035.9 |
| 20260509220046 | 13 | 90 | 1.6 | 1.6 | 0.00 | 0.00 | 0.00 | 83 | 1035.7 |
| 20260509213042 | 13 | 90 | 1.6 | 3.2 | 0.00 | 0.00 | 0.00 | 84 | 1035.3 |
| 20260509212039 | 13 | 90 | 1.6 | 3.2 | 0.00 | 0.00 | 0.00 | 84 | 1035.1 |
| 20260509211037 | 13 | 90 | 1.6 | 1.6 | 0.00 | 0.00 | 0.00 | 84 | 1035.1 |
| 20260509210035 | 13 | 90 | 1.6 | 1.6 | 0.00 | 0.00 | 0.00 | 84 | 1035.0 |
| 20260509205033 | 13 | 90 | 1.6 | 1.6 | 0.00 | 0.00 | 0.00 | 84 | 1035.0 |
| 20260509204030 | 13 | 90 | 1.6 | 1.6 | 0.00 | 0.00 | 0.00 | 84 | 1034.8 |
| 20260509203029 | 13 | 90 | 1.6 | 3.2 | 0.00 | 0.00 | 0.00 | 84 | 1034.9 |
| 20260509202026 | 13 | 90 | 1.6 | 1.6 | 0.00 | 0.00 | 0.00 | 84 | 1034.8 |
| 20260509201024 | 13 | 90 | 1.6 | 1.6 | 0.00 | 0.00 | 0.00 | 84 | 1034.7 |
| 20260509200023 | 13 | 90 | 1.6 | 3.2 | 0.00 | 0.00 | 0.00 | 84 | 1034.8 |
| 20260509195020 | 13 | 90 | 1.6 | 1.6 | 0.00 | 0.00 | 0.00 | 84 | 1034.5 |
| 20260509194018 | 13 | 90 | 1.6 | 1.6 | 0.00 | 0.00 | 0.00 | 84 | 1034.4 |
| 20260509193015 | 13 | 90 | 1.6 | 1.6 | 0.00 | 0.00 | 0.00 | 84 | 1034.4 |
| 20260509191012 | 13 | 90 | 1.6 | 1.6 | 0.00 | 0.00 | 0.00 | 84 | 1034.2 |
| 20260509190013 | 13 | 90 | 1.6 | 1.6 | 0.00 | 0.00 | 0.00 | 84 | 1034.1 |
| 20260509185008 | 13 | 90 | 1.6 | 3.2 | 0.00 | 0.03 | 0.00 | 84 | 1034.0 |
| 20260509184007 | 13 | 90 | 1.6 | 3.2 | 0.00 | 0.03 | 0.00 | 84 | 1033.9 |
| 20260509183005 | 13 | 90 | 1.6 | 1.6 | 0.00 | 0.03 | 0.00 | 84 | 1033.8 |
| 20260509182002 | 13 | 90 | 1.6 | 1.6 | 0.00 | 0.03 | 0.00 | 84 | 1033.6 |
| 20260509181000 | 13 | 90 | 1.6 | 1.6 | 0.00 | 0.03 | 0.00 | 84 | 1033.7 |
| 20260509175958 | 13 | 90 | 1.6 | 3.2 | 0.00 | 0.03 | 0.00 | 84 | 1033.6 |
| 20260509174956 | 13 | 90 | 1.6 | 1.6 | 0.00 | 0.03 | 0.00 | 84 | 1033.7 |
| 20260509172952 | 13 | 90 | 1.6 | 1.6 | 0.00 | 0.03 | 0.00 | 84 | 1033.6 |
| 20260509171951 | 13 | 90 | 1.6 | 1.6 | 0.00 | 0.03 | 0.00 | 84 | 1033.7 |
| 20260509165945 | 13 | 90 | 1.6 | 3.2 | 0.00 | 0.03 | 0.00 | 84 | 1033.9 |
| 20260509164946 | 13 | 90 | 1.6 | 3.2 | 0.00 | 0.05 | 0.00 | 84 | 1033.9 |
| 20260509163942 | 13 | 90 | 1.6 | 3.2 | 0.00 | 0.05 | 0.00 | 83 | 1033.7 |
| 20260509162940 | 13 | 90 | 1.6 | 1.6 | 0.00 | 0.05 | 0.00 | 83 | 1033.7 |
| 20260509161938 | 13 | 90 | 1.6 | 3.2 | 0.00 | 0.05 | 0.00 | 83 | 1033.8 |
| 20260509160938 | 14 | 90 | 1.6 | 3.2 | 0.00 | 0.05 | 0.00 | 83 | 1033.9 |
| 20260509155934 | 14 | 90 | 1.6 | 1.6 | 0.00 | 0.05 | 0.00 | 83 | 1033.9 |
| 20260509154932 | 14 | 90 | 1.6 | 1.6 | 0.00 | 0.05 | 0.00 | 83 | 1033.8 |
| 20260509153930 | 14 | 90 | 1.6 | 1.6 | 0.00 | 0.05 | 0.00 | 83 | 1033.9 |
| 20260509152929 | 14 | 90 | 1.6 | 3.2 | 0.00 | 0.05 | 0.00 | 83 | 1034.1 |
| 20260509151927 | 14 | 90 | 1.6 | 1.6 | 0.00 | 0.05 | 0.00 | 83 | 1034.0 |
| 20260509145923 | 14 | 90 | 1.6 | 1.6 | 0.00 | 0.05 | 0.00 | 83 | 1033.9 |
| 20260509144922 | 14 | 90 | 1.6 | 1.6 | 0.00 | 0.05 | 0.00 | 83 | 1033.9 |
| 20260509143919 | 14 | 90 | 1.6 | 1.6 | 0.00 | 0.05 | 0.00 | 83 | 1033.9 |
| 20260509141913 | 14 | 90 | 1.6 | 3.2 | 0.00 | 0.05 | 0.00 | 83 | 1034.1 |
| 20260509140915 | 14 | 90 | 1.6 | 3.2 | 0.00 | 0.05 | 0.00 | 83 | 1033.8 |
| 20260509135910 | 14 | 90 | 1.6 | 3.2 | 0.00 | 0.05 | 0.05 | 83 | 1033.7 |
| 20260509134908 | 14 | 90 | 1.6 | 1.6 | 0.00 | 0.05 | 0.05 | 82 | 1034.1 |
| 20260509133907 | 14 | 90 | 1.6 | 3.2 | 0.00 | 0.05 | 0.05 | 82 | 1034.1 |
| 20260509132903 | 15 | 90 | 1.6 | 1.6 | 0.00 | 0.05 | 0.05 | 82 | 1034.0 |
| 20260509131902 | 15 | 90 | 1.6 | 3.2 | 0.00 | 0.05 | 0.05 | 82 | 1033.9 |
| 20260509130901 | 15 | 90 | 1.6 | 3.2 | 0.00 | 0.05 | 0.05 | 82 | 1033.9 |
| 20260509124857 | 15 | 90 | 1.6 | 3.2 | 0.00 | 0.05 | 0.05 | 82 | 1034.0 |
| 20260509123853 | 15 | 90 | 1.6 | 3.2 | 0.00 | 0.05 | 0.05 | 82 | 1033.8 |
| 20260509122853 | 15 | 90 | 1.6 | 3.2 | 0.00 | 0.05 | 0.05 | 82 | 1034.0 |
| 20260509121850 | 15 | 90 | 1.6 | 1.6 | 0.00 | 0.05 | 0.05 | 82 | 1034.0 |
| 20260509120848 | 15 | 90 | 1.6 | 3.2 | 0.00 | 0.05 | 0.05 | 82 | 1034.0 |
| 20260509115846 | 15 | 90 | 1.6 | 1.6 | 0.00 | 0.05 | 0.05 | 82 | 1033.9 |
| 20260509114845 | 15 | 90 | 1.6 | 3.2 | 0.00 | 0.05 | 0.05 | 82 | 1034.0 |
| 20260509113841 | 15 | 90 | 1.6 | 1.6 | 0.00 | 0.05 | 0.05 | 82 | 1034.0 |
| 20260509112840 | 15 | 90 | 1.6 | 3.2 | 0.00 | 0.05 | 0.05 | 82 | 1033.8 |
| 20260509111838 | 15 | 90 | 1.6 | 3.2 | 0.00 | 0.05 | 0.05 | 82 | 1033.8 |
| 20260509110837 | 15 | 90 | 1.6 | 3.2 | 0.00 | 0.05 | 0.05 | 82 | 1033.6 |
| 20260509105836 | 15 | 90 | 1.6 | 1.6 | 0.00 | 0.05 | 0.05 | 82 | 1033.7 |
| 20260509103830 | 15 | 90 | 1.6 | 3.2 | 0.00 | 0.05 | 0.05 | 82 | 1033.6 |
| 20260509101827 | 15 | 90 | 1.6 | 3.2 | 0.00 | 0.05 | 0.05 | 82 | 1033.7 |
| 20260509095822 | 15 | 90 | 1.6 | 3.2 | 0.00 | 0.05 | 0.05 | 82 | 1033.7 |